Location: Agadir Mansour Mhndou
(31.2424°N, 8.7730°W)
Time: 05:13:03
(UTC+00:00)

Iridium 4 Rocket - Pass Details

Date: 16 October 2021
Orbit: 586 x 903 km, 86.9° (Epoch: 28 November)

Event Time Altitude Azimuth Distance (km) Brightness Sun altitude
Rises 19:29:18 0° 0° (N) 2,921 6.5 -19.4°
Reaches altitude 10° 19:31:27 10° 2° (N) 2,046 5.7 -19.9°
Maximum altitude 19:35:58 80° 88° (E) 698 3.1 -20.8°
Drops below altitude 10° 19:40:53 10° 177° (S) 2,223 5.8 -21.9°
Sets 19:43:18 0° 178° (S) 3,195 6.7 -22.4°
